Printer-friendly version

IAU Minor Planet Center

Minor Planet Center

MPEC 2006-Y54 : 2006 YH14

The following Minor Planet Electronic Circular may be linked-to from your own Web pages, but must not otherwise be redistributed electronically.


Read MPEC 2006-Y53 Read MPEC 2006-Y55


M.P.E.C. 2006-Y54                                Issued 2006 Dec. 27, 20:45 UT

     The Minor Planet Electronic Circulars contain information on unusual
         minor planets and routine data on comets.  They are published
   on behalf of Commission 20 of the International Astronomical Union by the
          Minor Planet Center, Smithsonian Astrophysical Observatory,
                          Cambridge, MA 02138, U.S.A.

             Prepared using the Tamkin Foundation Computer Network

                              MPC@CFA.HARVARD.EDU
          URL http://cfa-www.harvard.edu/iau/mpc.html  ISSN 1523-6714

                                   2006 YH14

Observations:
     K06Y14H* C2006 12 27.24776 08 04 48.03 +41 37 43.5          20.3 V EY054703
     K06Y14H  C2006 12 27.25671 08 04 50.30 +41 37 09.4          20.1 V EY054703
     K06Y14H  C2006 12 27.26568 08 04 52.60 +41 36 35.5          19.8 V EY054703
     K06Y14H  C2006 12 27.27464 08 04 55.02 +41 36 02.5          21.1 V EY054703
     K06Y14H  C2006 12 27.37475 08 05 20.14 +41 29 32.6          19.3 V EY054703
     K06Y14H  C2006 12 27.37597 08 05 20.45 +41 29 28.0          20.0 V EY054703
     K06Y14H  C2006 12 27.37720 08 05 20.74 +41 29 22.8          19.8 V EY054703
     K06Y14H  C2006 12 27.45012 08 05 38.92 +41 24 28.3          19.4 V EY054703
     K06Y14H  C2006 12 27.45135 08 05 39.22 +41 24 23.4          19.6 V EY054703
     K06Y14H  C2006 12 27.83225 08 07 32.78 +40 58 02.4          20.0 R EY054113
     K06Y14H  C2006 12 27.83353 08 07 33.16 +40 57 57.1          19.6 R EY054113
     K06Y14H  C2006 12 27.83482 08 07 33.51 +40 57 52.0          19.7 R EY054113

Observer details:
113 Volkssternwarte Drebach, Schoenbrunn.  Observer G. Lehmann.  0.5-m f/5
    reflector + CCD.
703 Catalina Sky Survey.  Observer A. R. Gibbs.  Measurers E. C. Beshore,
    E. J. Christensen, G. J. Garradd, A. R. Gibbs, A. D. Grauer, R. E. Hill,
    R. A. Kowalski, S. M. Larson, R. H. McNaught.  0.68-m Schmidt + CCD.

Orbital elements:
2006 YH14                                                Earth MOID = 0.0933 AU
Epoch 2007 Apr. 10.0 TT = JDT 2454200.5                 MPC
M  33.68492              (2000.0)            P               Q
n   0.39439313     Peri.  182.39451     -0.44008199     -0.88881784
a   1.8415485      Node   293.73850     +0.82616268     -0.34501485
e   0.4154648      Incl.    8.02488     +0.35182818     -0.30160837
P   2.50           H   23.2           G   0.15           U   8
Residuals in seconds of arc
061227 703  0.1+  0.0     061227 703  0.3+  0.2-    061227 703  0.3-  0.2+
061227 703  0.5-  0.3-    061227 703  0.3+  0.0     061227 113  0.2-  0.2+
061227 703  0.6-  0.3-    061227 703  0.1+  0.3-    061227 113  0.1+  0.1-
061227 703  0.7+  0.7+    061227 703  0.2-  0.1+    061227 113  0.1+  0.1-

Ephemeris:
2006 YH14                a,e,i = 1.84, 0.42, 8                   q = 1.0764
Date    TT    R. A. (2000) Decl.     Delta      r     Elong.  Phase     V
2006 12 21    07 34.77   +47 12.7    0.142    1.108   149.0    27.2    20.4
2006 12 31    08 22.04   +37 02.2    0.115    1.088   153.9    23.4    19.8
2007 01 10    09 02.29   +20 39.5    0.101    1.077   156.9    20.9    19.4
2007 01 20    09 31.03   +02 25.5    0.105    1.078   152.7    24.7    19.6
2007 01 30    09 49.12   -11 37.3    0.122    1.089   146.9    29.6    20.1
2007 02 09    09 59.62   -19 59.6    0.148    1.110   144.3    31.3    20.6
2007 02 19    10 05.53   -23 58.9    0.180    1.140   144.5    30.3    21.1
2007 03 01    10 09.90   -25 03.9    0.217    1.177   145.9    28.1    21.5
2007 03 11    10 14.81   -24 23.5    0.261    1.221   147.1    26.2    21.9

Timothy B. Spahr             (C) Copyright 2006 MPC           M.P.E.C. 2006-Y54

Read MPEC 2006-Y53 Read MPEC 2006-Y55


Our Web policy. Index to the CBAT/MPC/ICQ pages.


Valid HTML 4.01!